Aspen, CO

1:00 PM MDT on July 27, 2017 (GMT -0600)
Aspen-Pitkin County / Sardy Field

Weather History for KASE - August, 2013

Change the Weather History Date:

Saturday, August 24, 2013

  Actual Average Record
Temperature  
Mean Temperature 59 °F 60 °F  
Max Temperature 72 °F 75 °F 85 °F (2015)
Min Temperature 45 °F 45 °F 39 °F (2010)
Degree Days  
Heating Degree Days 6 5  
Month to date heating degree days 98 83  
Since 1 June heating degree days 276 383  
Since 1 July heating degree days 130 154  
Cooling Degree Days 0 0  
Month to date cooling degree days 4 9  
Year to date cooling degree days 60 38  
Since 1 June cooling degree days 60 38  
Growing Degree Days 8 (Base 50)    
Moisture  
Dew Point 45 °F    
Average Humidity 65    
Maximum Humidity 93    
Minimum Humidity 36    
Precipitation  
Precipitation 0.00 in 0.04 in 0.30 in (1986)
Month to date precipitation 1.22 1.30  
Year to date precipitation 9.57 11.08  
Sea Level Pressure  
Sea Level Pressure 29.99 in    
Wind  
Wind Speed 5 mph (South)    
Max Wind Speed 22 mph    
Max Gust Speed 29 mph    
Visibility 10 miles    
Events      
T = Trace of Precipitation, MM = Missing Value Source: NWS Daily Summary

Daily Weather History Graph

Daily Weather History Graph

Search for Another Location

Airport or City:

Trip Planner

Search our weather history database for the weather conditions in past years. The results will help you decide how hot, cold, wet, or windy it might be!

Date:

Astronomy

Aug. 24, 2013 Rise Set
Actual Time 6:29 AM MDT 7:49 PM MDT
Civil Twilight 6:01 AM MDT 8:17 PM MDT
Nautical Twilight 5:27 AM MDT 8:50 PM MDT
Astronomical Twilight 4:52 AM MDT 9:25 PM MDT
Moon 9:47 PM MDT (8/24) 10:29 AM MDT (8/24)
Length of Visible Light 14h 16m
Length of Day
13h 20m
Waning Gibbous, 84% of the Moon is Illuminated
Aug 24
Waning Gibbous
Aug 28
Last Quarter
Sep 5
New
Sep 12
First Quarter
Sep 19
Full

Hourly Weather History & Observations

Time (MDT) Temp. Windchill Dew Point Humidity Pressure Visibility Wind Dir Wind Speed Gust Speed Precip Events Conditions
12:53 AM 48.0 °F - 46.9 °F 96% 29.95 in 10.0 mi SSW 5.8 mph - N/A   Clear
1:53 AM 48.0 °F - 46.0 °F 93% 29.94 in 10.0 mi SW 8.1 mph - N/A   Clear
2:53 AM 50.0 °F - 46.0 °F 86% 29.94 in 10.0 mi Variable 3.5 mph - N/A   Clear
3:53 AM 48.0 °F - 45.0 °F 89% 29.94 in 10.0 mi SSE 3.5 mph - N/A   Mostly Cloudy
4:53 AM 46.0 °F 44.8 °F 44.1 °F 93% 29.98 in 10.0 mi SSW 3.5 mph - N/A   Partly Cloudy
5:53 AM 46.0 °F 41.9 °F 44.1 °F 93% 30.02 in 10.0 mi South 8.1 mph - N/A   Partly Cloudy
6:53 AM 46.9 °F - 45.0 °F 93% 30.03 in 10.0 mi Calm Calm - N/A   Mostly Cloudy
7:53 AM 51.1 °F - 46.0 °F 83% 30.04 in 10.0 mi Calm Calm - N/A   Clear
8:53 AM 54.0 °F - 50.0 °F 86% 30.04 in 10.0 mi Calm Calm - N/A   Scattered Clouds
9:53 AM 59.0 °F - 48.0 °F 67% 30.02 in 10.0 mi North 5.8 mph - N/A   Scattered Clouds
10:53 AM 64.9 °F - 48.0 °F 54% 30.02 in 10.0 mi Calm Calm - N/A   Scattered Clouds
11:53 AM 70.0 °F - 44.1 °F 39% 29.99 in 10.0 mi Variable 3.5 mph - N/A   Scattered Clouds
12:53 PM 69.1 °F - 44.1 °F 40% 30.00 in 10.0 mi North 6.9 mph - N/A   Mostly Cloudy
1:53 PM 70.0 °F - 44.1 °F 39% 29.99 in 10.0 mi North 11.5 mph - N/A   Mostly Cloudy
2:53 PM 66.0 °F - 39.9 °F 38% 30.01 in 10.0 mi NNW 8.1 mph 16.1 mph N/A   Mostly Cloudy
3:53 PM 70.0 °F - 41.0 °F 35% 29.98 in 10.0 mi NNW 6.9 mph - N/A   Mostly Cloudy
4:53 PM 70.0 °F - 42.1 °F 36% 29.97 in 10.0 mi SSE 6.9 mph - N/A   Mostly Cloudy
5:53 PM 66.0 °F - 46.0 °F 48% 29.99 in 10.0 mi ESE 9.2 mph - N/A   Mostly Cloudy
6:53 PM 64.9 °F - 45.0 °F 48% 29.99 in 10.0 mi NNE 3.5 mph - N/A   Mostly Cloudy
7:53 PM 60.1 °F - 46.9 °F 62% 30.01 in 10.0 mi Calm Calm - N/A   Clear
8:53 PM 60.1 °F - 48.0 °F 64% 30.01 in 10.0 mi South 6.9 mph - N/A   Scattered Clouds
9:53 PM 57.9 °F - 46.9 °F 67% 30.01 in 10.0 mi SSW 5.8 mph - N/A   Partly Cloudy
10:53 PM 55.0 °F - 45.0 °F 69% 30.02 in 10.0 mi South 8.1 mph - N/A   Mostly Cloudy
11:53 PM 55.9 °F - 45.0 °F 67% 29.99 in 10.0 mi South 5.8 mph - N/A   Overcast